Location: Saratoga Springs
(43.0831°N, 73.7850°W)
Time: 11:56:19
(UTC-04:00)

Vanguard 3 - Pass Details

Date: 27 April 2024
Orbit: 509 x 3233 km, 33.3° (Epoch: 23 May)

Event Time Altitude Azimuth Distance (km) Brightness Sun altitude
Exits shadow 23:45:06 15° 111° (ESE) 5,398 10.9 -30.6°
Drops below altitude 10° 23:48:39 10° 100° (E) 5,670 11.2 -30.8°
Sets 23:54:14 0° 86° (E) 6,319 11.6 -31.1°
